TimeCST,TemperatureF,Dew PointF,Humidity,Sea Level PressureIn,VisibilityMPH,Wind Direction,Wind SpeedMPH,Gust SpeedMPH,PrecipitationIn,Events,Conditions,WindDirDegrees,DateUTC
12:53 AM,41.0,32.0,70,30.22,10.0,NW,11.5,-,N/A,,Overcast,320,2013-12-15 06:53:00
1:53 AM,39.9,32.0,73,30.24,9.0,NNW,9.2,-,N/A,,Overcast,330,2013-12-15 07:53:00
2:07 AM,39.2,32.0,75,30.24,8.0,NNW,10.4,-,N/A,,Overcast,340,2013-12-15 08:07:00
2:40 AM,37.4,30.2,75,30.25,8.0,NNW,10.4,-,N/A,,Mostly Cloudy,330,2013-12-15 08:40:00
2:53 AM,37.9,32.0,79,30.26,8.0,NNW,6.9,-,N/A,,Overcast,330,2013-12-15 08:53:00
3:53 AM,37.9,30.9,76,30.27,8.0,NNW,10.4,-,N/A,,Overcast,330,2013-12-15 09:53:00
4:53 AM,35.1,28.9,78,30.27,7.0,North,11.5,-,N/A,,Mostly Cloudy,350,2013-12-15 10:53:00
5:00 AM,33.8,28.4,81,30.27,7.0,North,8.1,-,N/A,,Partly Cloudy,360,2013-12-15 11:00:00
5:53 AM,33.1,28.9,85,30.29,6.0,NNW,4.6,-,N/A,,Clear,330,2013-12-15 11:53:00
6:53 AM,30.9,28.0,89,30.32,5.0,NW,4.6,-,N/A,,Clear,320,2013-12-15 12:53:00
7:53 AM,32.0,28.9,88,30.33,4.0,NNW,5.8,-,N/A,,Clear,330,2013-12-15 13:53:00
8:53 AM,36.0,30.9,82,30.35,5.0,NNW,4.6,-,N/A,,Haze,340,2013-12-15 14:53:00
9:53 AM,39.0,30.9,73,30.36,6.0,North,8.1,-,N/A,,Haze,360,2013-12-15 15:53:00
10:53 AM,39.0,30.0,70,30.35,7.0,North,4.6,-,N/A,,Overcast,10,2013-12-15 16:53:00
11:53 AM,41.0,32.0,70,30.33,7.0,Variable,3.5,-,N/A,,Overcast,0,2013-12-15 17:53:00
12:36 PM,42.8,30.2,61,30.31,8.0,North,8.1,-,N/A,,Scattered Clouds,360,2013-12-15 18:36:00
12:53 PM,43.0,30.9,62,30.31,8.0,NW,6.9,-,N/A,,Clear,320,2013-12-15 18:53:00
1:53 PM,43.0,30.9,62,30.30,8.0,North,5.8,-,N/A,,Clear,10,2013-12-15 19:53:00
2:53 PM,45.0,32.0,60,30.29,9.0,NE,3.5,-,N/A,,Clear,40,2013-12-15 20:53:00
3:53 PM,45.0,30.9,58,30.29,9.0,Calm,Calm,-,N/A,,Clear,0,2013-12-15 21:53:00
4:53 PM,43.0,32.0,65,30.30,9.0,Calm,Calm,-,N/A,,Clear,0,2013-12-15 22:53:00
5:53 PM,36.0,32.0,86,30.30,10.0,Calm,Calm,-,N/A,,Clear,0,2013-12-15 23:53:00
6:53 PM,34.0,30.9,89,30.31,9.0,Calm,Calm,-,N/A,,Clear,0,2013-12-16 00:53:00
7:53 PM,34.0,30.9,89,30.32,6.0,Calm,Calm,-,N/A,,Clear,0,2013-12-16 01:53:00
8:53 PM,33.1,30.9,92,30.32,6.0,Calm,Calm,-,N/A,,Clear,0,2013-12-16 02:53:00
9:53 PM,32.0,30.0,92,30.32,5.0,Calm,Calm,-,N/A,,Clear,0,2013-12-16 03:53:00
10:53 PM,33.1,30.9,92,30.32,5.0,Calm,Calm,-,N/A,,Clear,0,2013-12-16 04:53:00
11:53 PM,32.0,30.9,96,30.32,5.0,Calm,Calm,-,N/A,,Clear,0,2013-12-16 05:53:00